Other Public Products
Issued by NWS Grand Forks, ND

Home | Current Version | Previous Version | Graphics & Text | Print | Product List | Glossary On
Versions: 1 2 3 4 5 6 7 8 9 10 11 12 13 14 15 16 17 18 19 20 21 22 23 24 25 26 27 28 29 30 31 32 33 34 35 36 37 38 39 40 41 42 43 44 45 46 47 48 49 50
000
FPUS83 KFGF 230810
OPUFGF
PRAIRIE TO PINES WEATHER ROUNDUP
NATIONAL WEATHER SERVICE EASTERN NORTH DAKOTA/GRAND FORKS ND
200 AM CST THU FEB 23 2017

 **SATELLITE DATA USED TO AUGMENT SKY COVER AT AUTOMATED STATIONS**
 *****  WEATHER ACROSS EASTERN NORTH DAKOTA  *****

CITY           SKY/WX    TMP DP  RH WIND       PRES   REMARKS
GRAND FORKS    MOCLDY    28  21  75 N7        29.98S WCI  21
GRAND FORKS AF FAIR      27  22  84 N8        29.99S WCI  18
GRAND CITY NWS NOT AVBL
BUXTON         NOT AVBL
DEVILS LAKE    FAIR      25  22  88 NW9       29.97S WCI  15
FARGO          FAIR      30  26  85 N12       29.95F WCI  20
WAHPETON ARPT  FAIR      30  27  86 N9        29.97R WCI  22
$$

 *****  WEATHER ACROSS CENTRAL AND WESTERN NORTH DAKOTA  *****

CITY           SKY/WX    TMP DP  RH WIND       PRES   REMARKS
JAMESTOWN      FAIR      25  22  88 NW7       29.97R WCI  17
BISMARCK       FAIR      25  23  92 CALM      30.00S
MINOT          CLOUDY    33  28  81 W5        29.97F
MINOT AFB      CLOUDY    30  28  90 NW6       29.97F WCI  24
GARRISON       NOT AVBL
WILLISTON      CLOUDY    28  25  88 CALM      30.00S
DICKINSON      CLOUDY    23  21  92 E5        29.95R WCI  17
HETTINGER      CLOUDY    27  25  92 NE8       29.96R WCI  19
$$

 *****  OTHER OBSERVATIONS NORTHEAST NORTH DAKOTA  *****

CITY           SKY/WX    TMP DP  RH WIND       PRES   REMARKS
WALHALLA       NOT AVBL
LANGDON        NOT AVBL
CAVALIER         N/A     28  23  80 N7        30.01R WCI  21
GRAFTON        CLOUDY    28  25  86 N12       30.01S WCI  18
CANDO          NOT AVBL
FORT TOTTEN      N/A     26  26 100 NW3       29.95S
ROLLA          FAIR      19  19 100 NW7       29.98R WCI  10
RUGBY          FOG       18  18 100 CALM      29.98F VSB 1/4
 ***** THE ABOVE OBSERVATIONS ARE NON NWS ARE NOT QUALITY
        CONTROLLED AND MAY MIS-REPORT RAIN FOR SNOW...
$$

 *****  OTHER OBSERVATIONS SOUTHEAST NORTH DAKOTA *****

CITY           SKY/WX    TMP DP  RH WIND       PRES   REMARKS
COOPERSTOWN    FAIR      27  25  93 N6        29.96F WCI  20
VALLEY CITY    MIX PCPN  27  27 100 W5        29.99R WCI  21
OAKES          NOT AVBL
GWINNER        FAIR      28  27  93 NW9       29.98R WCI  20
SHEYENNE NWR     N/A     27  24  87 NW3       29.95S
BUFFALO        NOT AVBL
WYNDMERE       NOT AVBL
 ***** THE ABOVE OBSERVATIONS ARE NON NWS ARE NOT QUALITY
       CONTROLLED AND MAY MIS-REPORT RAIN FOR SNOW...
$$

  *****  WEATHER ACROSS NORTHERN MINNESOTA  *****

CITY           SKY/WX    TMP DP  RH WIND       PRES   REMARKS
FLAG ISLAND    CLOUDY    25  16  68 NW23      29.95R WCI  10
WARROAD        CLOUDY    27  18  69 NW9G20    29.96R WCI  17
ROSEAU         MOCLDY    27  19  74 N14       29.97R WCI  15
HALLOCK        CLOUDY    28  23  80 N7        30.00R WCI  21
THF RVR FALLS    N/A     23  21  92 MISG        N/A
HALSTAD          N/A     29  25  84 N10         N/A  WCI  20
FOSSTON        FAIR      25  21  86 N10       29.95R WCI  15
BAUDETTE       CLOUDY    26  17  68 N12G21    29.92R WCI  16
WASKISH        MOCLDY    25  19  80 NW5       29.94R WCI  19
CROOKSTON      FAIR      27  25  93 N7        29.99R WCI  19
$$
  *****  WEATHER ACROSS CENTRAL AND WEST MINNESOTA  *****

CITY           SKY/WX    TMP DP  RH WIND       PRES   REMARKS
BEMIDJI        MOCLDY    26  21  82 N12       29.91S WCI  15
PARK RAPIDS    FAIR      23  18  81 N7        29.89S WCI  15
WADENA         FAIR      27  25  93 N7        29.89F WCI  19
DETROIT LAKES  FAIR      28  27  93 N7        29.92F WCI  21
MOORHEAD       FAIR      28  25  86 N13       29.96F WCI  18
FERGUS FALLS   FAIR      28  27  93 N5        29.98R WCI  23
ELBOW LAKE     FAIR      29  27  90 NW7       29.95R WCI  22
MORRIS MN      FAIR      30  28  93 NW8       29.93R WCI  23
STAPLES        FAIR      27  25  93 N9        29.89F WCI  17
WHEATON        FAIR      28  27  93 NW5       29.99R WCI  23
$$
  *****  WEATHER ELSEWHERE ACROSS MINNESOTA  *****

CITY           SKY/WX    TMP DP  RH WIND       PRES   REMARKS
DULUTH         CLOUDY    30  27  88 N9        29.81R WCI  22
INTRNTL FALLS  CLOUDY    26  18  71 NW15      29.90R WCI  14
ELY            CLOUDY    28  25  86 NW7       29.82R WCI  21
CLOQUET        CLOUDY    30  27  86 NW8       29.84R WCI  23
BRAINERD       NOT AVBL
HIBBING        FAIR      25  24  96 NW15      29.84R WCI  13
ALEXANDRIA     FAIR      29  25  85 N7        29.91R WCI  22
SAINT CLOUD    FAIR      31  27  85 N8        29.89R WCI  23
MINNEAPOLIS    CLOUDY    37  30  75 N15G23    29.85R
$$

  *****  WEATHER ACROSS SOUTH DAKOTA  *****

CITY           SKY/WX    TMP DP  RH WIND       PRES   REMARKS
SIOUX FALLS    CLOUDY    32  29  88 N20G28    29.87S WCI  20
BROOKINGS      CLOUDY    30  25  81 N17G26    29.89F WCI  18
WATERTOWN      FAIR      26  23  88 N10       29.92S WCI  16
HURON          CLOUDY    31  24  75 NE16      29.95F WCI  20
SISSETON         N/A     28  26  92 N12       29.96R WCI  18
ABERDEEN       FAIR      24  21  88 N7        29.98F WCI  16
MITCHELL       CLOUDY    33  28  81 N16       29.92F WCI  23
PIERRE         CLOUDY    31  25  78 NE12      29.96R WCI  22
MOBRIDGE       CLOUDY    32  25  75 NE6       29.95F
RAPID CITY     CLOUDY    30  27  88 N7        29.89F WCI  23
$$

  *****  SOME WEATHER IN NEARBY STATES *****

CITY           SKY/WX    TMP DP  RH WIND       PRES   REMARKS
GLASGOW MT     FAIR      23  21  92 NE3       29.99S
GREAT FALLS MT CLOUDY    29  26  89 N7        29.93F WCI  22
CHEYENNE WY    CLOUDY    29  27  92 E6        29.70F WCI  23
SCOTTSBLUFF NE CLOUDY    34  30  85 NE15G21   29.78R WCI  24
OMAHA NE       FAIR      37  33  85 N8        29.81R
DES MOINES IA  FAIR      43  38  82 N15       29.79R
DAVENPORT IA   FAIR      44  41  89 NW9       29.74R
CHICAGO IL     FAIR      55  49  80 SW10      29.65R
EAU CLAIRE WI  CLOUDY    38  33  82 NW10      29.77R
LA CROSSE WI   MOCLDY    42  37  82 NW14      29.74R
$$

  *****  SOME NATIONAL WEATHER *****

CITY           SKY/WX    TMP DP  RH WIND       PRES   REMARKS
LA GUARDIA NY  FAIR      44  39  82 NE3       29.88F
RALEIGH NC     CLOUDY    57  52  83 SE3       29.92F
ATLANTA GA     FAIR      56  55  97 E8        29.86F
NEW ORLEANS LA FAIR      58  57  97 CALM      29.81F
OKLAHOMA CITY  MOCLDY    54  44  69 SE8       29.61F
ALBUQUERQUE NM MOCLDY    46  29  51 SE12      29.77F
SALT LAKE CITY MOCLDY    31  29  92 S5        29.74F
LOS ANGELES CA FAIR      54  33  45 NW10      30.07S
BOISE ID       FAIR      32  27  81 NW17      29.82S WCI  21
SEATTLE WA     CLOUDY    37  34  89 CALM      30.21S
$$

*** WEATHER ACROSS MANITOBA...SASKATCHEWAN AND ONTARIO ***
                ***ONTARIO***

CITY           SKY/WX    TMP DP  RH WIND       PRES   REMARKS
GERALDTON      CLOUDY    28  23  80 NW9       29.71R WCI  20
THUNDER BAY    MOCLDY    30  21  69 NW5       29.77R
SIOUX LOOKOUT  FLURRIES  23  14  68 NW14      29.83R WCI  11
TORONTO        CLOUDY    46  46 100 SE7       29.66F
BIG TROUT LK   LGT SNOW  -2  -6  84 NW13      29.86R WCI -21
PICKLE LAKE    NOT AVBL
DRYDEN         FLURRIES  25  16  68 NW9       29.85R WCI  15
KENORA         CLOUDY    21  14  73 N12       29.92R WCI   9
$$
                *** MANITOBA***

CITY           SKY/WX    TMP DP  RH WIND       PRES   REMARKS
BRANDON        CLOUDY    25  19  80 NE9       30.01R WCI  15
DAUPHIN        FLURRIES  21  14  73 E3        30.05S
ISLAND LAKE    NOT AVBL
PILOT MOUND      N/A     25  21  86 E5          N/A  WCI  19
THE PAS        PTCLDY     5  -2  72 N10       30.09S WCI -10
THOMPSON       FLURRIES  -4  -9  77 N10       30.10R WCI -21
WINNIPEG       NOT AVBL
LYNN LAKE      CLOUDY    -4  -9  77 NE9       30.12R WCI -20
CHURCHILL      CLEAR     -9 -13  84 N10       30.23R WCI -28
GILLAM         CLEAR    -13 -18  77 N10       30.09R WCI -32
$$
                ***SASKATCHEWAN***

CITY           SKY/WX    TMP DP  RH WIND       PRES   REMARKS
ESTEVAN        CLOUDY    30  28  93 NW8       29.98S WCI  23
KINDERSLEY     CLOUDY    23  19  86 SW5       30.07R WCI  17
LLOYDMINSTER   MOCLDY    18  14  86 NW9       30.06R WCI   6
PRINCE ALBERT  FLURRIES  19  14  79 S3        30.06S
REGINA         CLOUDY    23  18  80 N13       30.05R WCI  11
YORKTON        FLURRIES  21  16  79 NW8       30.05R WC



USA.gov is the U.S. government's official web portal to all federal, state and local government web resources and services.